Location: River House Observatory
(37.8577°N, 76.3548°W)
Time: 03:37:47
(UTC-05:00)

Hubble Space Telescope - Visible Passes

Search period start: 19 November 2017 00:00
Search period end: 29 November 2017 00:00
Orbit: 537 x 541 km, 28.5° (Epoch: 18 November)

Date Brightness Start Highest point End Pass type
(mag) Time Alt. Az. Time Alt. Az. Time Alt. Az.
19 Nov 3.4 04:19:27 14° SSE 04:19:27 14° SSE 04:20:57 10° SE visible
19 Nov 2.8 05:56:02 10° SW 05:59:14 22° S 06:02:27 10° SE visible
20 Nov 3.5 04:10:00 13° SE 04:10:00 13° SE 04:10:58 10° SE visible
20 Nov 2.7 05:45:44 10° SW 05:48:56 22° S 05:52:09 10° SE visible
21 Nov 3.8 04:00:30 12° SE 04:00:30 12° SE 04:00:53 10° SE visible
21 Nov 2.7 05:35:52 12° SW 05:38:38 22° S 05:41:50 10° SE visible
22 Nov 2.7 05:26:19 15° SW 05:28:20 21° S 05:31:28 10° SE visible
23 Nov 2.6 05:16:45 17° SSW 05:18:01 20° S 05:21:03 10° SE visible
24 Nov 2.7 05:07:10 18° SSW 05:07:43 18° S 05:10:34 10° SSE visible
25 Nov 2.9 04:57:36 16° S 04:57:36 16° S 05:00:00 10° SSE visible
26 Nov 3.2 04:48:02 13° S 04:48:02 13° S 04:49:20 10° SSE visible
27 Nov 3.6 04:38:29 10° S 04:38:29 10° S 04:38:29 10° S visible
